Theta_e
301 295 292 295 296 293 292 289 288 291 294 292 291 290 293 295 295 295 297 298 299 301 304 305 306 307 308 307 307 309 315 332 338 336 332 332 332 334 334 336 335 332 330 328
294 290 295 299 298 294 292 289 288 291 292 291 289 288 293 295 295 296 297 298 297 298 299 300 302 304 304 307 307 307 309 318 334 336 335 334 335 334 335 335 334 334 331 328
290 290 298 298 296 292 291 289 287 288 289 289 287 287 289 292 293 293 294 294 295 294 294 295 298 301 303 303 304 306 307 310 324 336 336 333 334 332 333 332 332 332 332 329
292 297 295 293 291 292 289 292 290 288 287 284 287 282 287 288 288 290 292 293 294 295 296 296 298 299 300 301 302 304 306 307 312 329 333 332 329 328 331 332 333 332 330 329
289 293 293 288 288 293 289 292 289 286 284 284 284 282 285 287 286 288 291 293 295 296 297 298 298 300 300 301 301 301 302 305 307 316 330 331 330 331 332 332 331 331 328 328
292 297 295 292 295 294 291 287 285 283 282 277 280 281 282 285 287 289 291 294 295 297 298 299 300 301 301 303 303 304 302 302 304 307 317 329 329 330 327 327 329 330 327 325
288 290 293 295 289 292 289 285 276 274 275 276 281 279 283 287 289 291 292 294 295 297 299 300 299 300 302 302 303 303 302 303 303 304 307 315 327 329 326 327 326 327 320 319
283 281 289 292 290 287 285 286 278 272 273 275 281 278 283 287 288 292 293 293 294 297 299 300 300 299 300 302 303 302 301 301 302 303 304 307 313 323 325 325 324 326 324 322
281 282 291 292 292 291 285 282 283 275 275 274 278 281 286 288 290 291 292 293 294 297 298 299 300 301 300 301 302 302 302 302 302 303 304 305 305 309 316 321 320 323 321 317
285 282 290 290 293 291 287 287 280 276 270 273 275 276 280 285 288 290 291 292 294 297 299 299 300 300 300 301 302 303 302 303 304 305 306 306 307 308 310 314 314 314 312 311
287 284 286 290 287 284 285 282 280 280 277 274 273 277 283 286 289 289 291 292 295 298 299 299 299 300 301 301 299 297 297 299 301 302 302 303 303 304 306 307 307 307 307 307
288 285 282 284 288 290 287 284 281 275 274 275 275 278 287 287 289 289 290 293 298 298 298 297 297 299 300 297 295 294 295 297 298 299 300 301 303 304 304 303 302 303 303 303
288 281 279 281 285 288 285 285 283 281 279 275 274 278 287 288 288 289 290 293 297 297 293 294 296 297 295 293 293 293 294 294 297 298 300 301 302 302 301 300 300 300 299 299
291 283 279 277 280 284 279 283 283 281 277 277 276 279 285 288 288 291 292 296 296 293 291 291 291 291 291 291 292 292 292 293 294 296 297 297 298 297 297 297 296 295 295 293
288 280 281 283 285 285 283 284 282 278 280 278 280 280 284 287 289 291 293 295 294 291 290 290 289 289 290 290 289 289 290 290 291 291 292 292 293 293 292 291 291 291 291 290
287 280 282 279 284 284 283 284 284 283 284 282 283 283 291 293 294 294 295 293 292 290 290 289 289 289 289 289 288 288 289 289 290 290 290 291 291 290 290 290 290 290 291 291
285 282 279 276 282 283 279 283 284 284 285 286 282 287 292 292 294 296 294 292 290 288 289 288 289 289 289 289 290 289 290 291 290 290 289 290 290 289 289 290 290 289 288 289
284 283 282 278 280 275 283 287 288 286 286 288 288 291 293 293 296 292 291 290 287 287 287 288 289 289 289 290 290 290 290 290 290 289 289 289 289 288 289 288 286 285 286 287
290 288 283 279 277 280 286 287 286 286 287 290 289 292 293 295 296 293 290 288 286 286 287 288 289 289 289 290 290 290 289 289 288 288 288 288 288 288 287 286 286 287 286 285
291 289 282 278 274 274 282 291 292 292 288 296 293 294 294 296 293 294 289 287 287 288 289 288 289 289 289 289 289 288 287 287 286 287 287 288 288 287 286 286 285 285 285 285
285 286 281 279 276 280 286 290 291 284 288 296 296 296 296 294 295 291 289 288 289 289 289 290 290 288 289 289 288 287 287 286 287 288 288 287 287 286 286 285 285 285 284 283
283 282 282 283 277 275 288 291 289 295 294 295 294 295 296 294 291 289 289 288 288 288 289 289 288 288 288 289 287 286 285 287 287 287 286 286 286 287 287 285 283 282 281 280
282 283 283 283 282 289 292 292 296 295 293 293 293 293 295 292 291 290 288 287 287 287 288 289 289 288 288 288 288 286 287 289 288 287 287 286 284 283 281 280 279 279 279 278
284 287 286 286 290 288 292 294 294 295 295 292 292 292 293 293 292 290 289 287 287 288 288 288 288 287 286 288 288 288 288 289 287 284 280 279 279 278 279 279 279 278 277 277
286 287 286 286 289 291 293 294 296 297 295 293 292 293 294 292 291 291 289 288 288 288 289 289 288 287 286 288 288 289 288 286 281 280 279 279 278 277 277 278 278 278 277 279
287 286 284 284 290 290 291 294 297 296 295 294 291 291 293 293 292 292 290 289 289 289 288 287 288 287 287 287 287 286 285 282 280 278 278 278 278 279 279 280 280 285 285 285
Wind_Speed
12 10 14 17 10 4 8 7 4 3 2 3 4 5 9 10 6 8 10 11 12 11 9 9 11 10 9 8 9 12 12 15 11 8 9 9 10 9 9 10 14 14 12 14
3 12 8 9 8 4 12 9 5 1 2 2 2 7 12 11 7 9 11 10 8 8 9 10 10 8 9 11 9 8 11 13 12 10 11 10 10 9 10 7 10 13 15 14
5 7 7 10 17 12 3 10 4 4 2 2 3 5 3 1 3 4 5 2 3 6 10 10 8 7 6 8 9 10 11 11 12 14 9 5 2 2 6 7 9 13 15 15
7 6 14 5 7 5 7 1 5 6 3 2 3 3 2 2 10 10 7 8 8 8 8 7 6 4 4 6 5 7 8 9 10 13 11 14 11 11 10 9 9 9 13 15
3 15 17 13 6 4 2 5 3 3 4 1 1 2 4 0 5 4 6 6 7 8 7 9 8 8 6 5 4 4 5 7 7 9 13 11 13 9 8 9 13 12 9 13
5 2 4 3 18 12 10 6 7 4 2 1 1 2 3 2 3 2 1 4 6 8 7 6 5 5 6 6 6 5 3 3 5 5 9 12 14 12 8 8 9 9 7 8
3 4 4 5 11 3 4 3 3 3 1 3 1 2 5 2 2 5 2 4 5 6 8 9 10 9 9 9 8 6 7 6 6 3 5 9 11 11 12 11 9 10 6 5
3 4 2 2 3 7 2 3 4 5 4 2 1 5 2 3 4 4 1 4 5 5 7 8 8 7 8 9 9 9 8 6 6 5 3 4 7 7 7 10 8 8 8 8
5 4 3 5 3 2 2 2 3 7 2 1 3 4 3 2 2 1 2 2 5 5 6 7 7 7 6 9 10 10 10 7 5 5 5 5 5 6 7 8 6 6 6 5
2 7 3 1 3 9 2 7 3 2 3 3 2 3 4 5 4 1 3 4 4 4 6 6 7 7 5 7 7 8 9 8 7 6 4 4 5 5 6 5 7 6 4 5
5 4 1 2 1 6 2 2 4 4 2 4 1 3 5 9 7 2 4 4 2 5 7 7 8 7 6 5 7 7 8 9 9 7 6 5 4 5 4 3 2 2 4 6
1 6 4 3 1 1 2 3 4 4 4 2 1 5 1 5 5 2 6 6 4 5 7 9 9 8 7 8 9 9 9 8 7 6 5 6 6 5 4 3 2 3 5 6
4 3 4 1 1 2 3 4 4 5 3 4 4 4 1 2 4 8 5 5 5 4 9 9 9 8 8 8 8 8 9 9 8 6 5 6 6 6 6 4 3 5 6 7
6 3 5 5 2 4 3 4 4 5 3 4 6 6 4 4 6 11 9 0 3 5 7 8 9 8 8 10 11 9 9 9 8 8 8 8 9 9 9 8 8 8 8 9
4 4 2 1 2 3 4 4 8 5 5 6 2 5 7 7 7 7 4 2 4 6 6 7 7 7 8 7 6 8 9 8 9 10 10 11 10 11 12 11 11 11 11 11
3 2 2 3 1 4 3 4 7 8 3 7 1 13 13 13 7 4 2 2 3 4 5 5 5 6 6 4 6 6 7 9 9 10 11 10 11 11 11 11 11 11 11 12
3 4 3 2 2 1 4 10 11 5 4 9 8 10 6 5 3 2 1 1 2 2 3 3 2 4 4 6 4 7 7 9 10 10 11 10 9 10 9 10 9 12 11 11
5 4 3 1 3 2 4 1 7 12 4 11 7 9 9 7 1 3 3 2 2 2 2 3 3 4 5 5 5 8 8 10 10 11 10 10 10 9 9 10 10 10 10 9
1 3 2 1 2 5 1 3 6 6 1 10 14 14 10 4 3 2 4 4 3 3 3 3 5 4 5 5 5 8 9 9 9 9 9 9 9 9 10 10 10 9 10 10
5 5 4 1 1 2 2 0 2 2 3 3 7 7 4 2 3 1 5 5 5 4 4 5 5 5 7 6 5 9 8 9 8 8 8 8 8 9 8 8 8 8 9 8
1 1 3 2 2 6 6 4 1 2 3 2 1 4 3 4 1 6 8 6 5 5 6 6 7 7 5 5 6 8 8 8 7 8 8 9 8 8 7 8 6 7 9 9
5 5 3 2 0 5 4 1 1 1 3 3 3 3 2 4 7 8 8 8 6 6 6 6 7 6 6 7 7 7 8 5 7 9 8 8 7 5 5 8 7 8 8 8
3 6 4 7 6 4 3 4 1 2 5 4 1 2 2 6 6 9 8 7 6 6 6 5 6 7 6 7 6 8 5 5 7 8 8 8 8 7 6 7 7 6 6 5
3 3 3 1 1 6 6 5 4 2 3 2 2 2 5 5 9 8 9 8 7 6 6 6 7 6 7 6 5 6 7 7 8 9 8 6 7 7 6 5 5 5 4 4
4 5 4 5 7 5 1 3 3 2 2 2 2 2 4 6 8 10 9 9 8 7 7 6 7 8 9 7 8 7 6 6 8 8 6 6 5 6 6 5 4 4 2 3
5 7 5 6 6 4 6 4 4 5 5 3 3 2 2 5 10 10 9 9 9 8 8 7 8 9 8 7 6 5 6 8 8 7 5 5 5 4 5 5 5 9 9 9
Wind_Direction
187 198 200 194 190 130 137 151 153 221 173 148 226 245 264 265 262 249 251 258 265 255 258 255 259 248 233 228 228 223 213 219 201 194 198 212 208 206 215 213 211 205 199 196
140 204 176 190 183 163 159 161 178 67 84 153 21 281 257 248 247 237 250 264 288 293 293 275 260 249 232 240 230 228 220 214 207 202 210 213 215 215 221 211 212 211 202 194
165 159 196 213 186 162 157 166 167 145 129 83 321 277 278 306 338 22 44 34 30 337 318 310 290 262 253 240 239 236 221 219 205 206 207 201 174 206 196 214 211 212 204 198
123 168 177 75 109 131 137 92 126 121 101 217 356 285 310 58 55 61 49 34 12 343 340 344 360 342 297 274 267 254 246 230 215 202 203 208 215 218 216 218 220 217 208 206
90 166 167 154 170 143 153 72 104 87 93 62 4 139 267 272 58 40 26 12 353 337 339 355 4 12 16 2 333 293 260 246 239 216 210 205 213 218 218 216 227 219 208 210
72 54 91 3 152 165 138 98 59 59 82 73 279 197 291 139 130 102 9 352 334 340 354 6 349 349 12 10 23 26 6 291 265 231 223 221 221 218 211 210 218 222 215 208
49 43 7 147 89 71 101 105 53 22 28 217 349 130 251 261 271 160 166 331 330 333 6 6 8 6 9 13 7 10 21 6 359 319 247 249 245 234 222 221 220 219 196 198
137 102 49 328 107 160 114 132 153 179 180 187 29 229 210 299 208 162 265 287 306 350 2 4 357 345 351 358 8 7 4 355 353 348 325 270 259 246 230 226 218 220 217 215
119 59 348 45 111 72 153 112 150 106 22 72 211 275 353 211 190 288 331 6 7 1 358 350 341 345 341 351 355 359 353 356 358 336 322 312 294 268 255 253 240 236 225 199
148 102 46 176 66 35 111 133 103 351 118 259 254 266 179 188 191 263 341 5 344 343 350 353 352 345 333 350 350 4 0 351 359 353 347 332 322 311 293 280 258 238 200 169
127 95 27 117 37 160 139 79 54 90 86 164 233 253 191 178 177 91 324 305 349 1 3 0 352 349 349 20 16 17 8 3 5 6 359 13 15 2 352 334 318 214 165 157
24 117 118 145 225 173 95 141 134 127 224 77 88 276 264 219 197 4 314 314 26 1 5 358 350 351 25 22 12 7 1 5 4 1 21 28 25 33 35 53 108 141 141 142
178 39 104 76 83 32 183 175 121 99 83 192 139 265 139 219 266 279 281 328 16 22 15 6 12 21 21 22 21 17 9 359 360 10 25 41 46 55 54 50 94 116 121 122
92 93 147 176 167 130 171 176 162 125 131 155 230 306 291 302 311 319 320 35 13 42 22 13 12 12 22 25 17 16 13 7 6 28 34 47 52 58 57 50 55 68 85 99
82 100 89 204 118 153 185 174 177 175 183 171 244 215 270 270 281 273 281 34 24 23 16 16 6 13 26 23 19 31 33 26 26 43 48 47 56 57 61 63 65 66 68 78
14 122 90 8 90 222 260 226 199 222 221 262 258 284 261 268 280 284 116 360 10 17 19 16 13 35 29 20 30 34 44 46 46 51 55 53 57 63 67 69 74 80 80 84
81 122 71 291 360 340 289 221 195 186 205 206 209 230 269 264 269 141 177 136 47 32 20 27 33 53 48 48 44 52 49 60 60 55 53 57 65 75 70 72 80 85 80 74
123 108 101 242 349 231 241 237 185 203 195 217 261 255 257 284 113 127 105 115 98 82 67 52 47 65 58 54 57 65 58 60 60 59 59 65 68 68 71 74 74 71 71 76
95 107 115 240 240 291 114 169 143 179 242 203 226 263 276 261 165 155 121 99 116 132 110 93 73 68 64 56 68 75 68 66 67 63 61 63 76 80 80 72 68 74 74 69
62 74 115 137 156 209 232 102 163 236 123 189 203 257 277 145 276 145 137 122 109 101 116 101 89 76 64 49 65 79 74 73 70 73 76 71 77 84 85 85 81 81 82 77
133 115 178 247 251 286 249 274 205 144 191 323 226 276 246 197 180 122 124 121 125 131 112 95 79 76 73 73 79 77 75 66 76 81 77 77 75 78 77 81 77 86 87 86
173 160 198 151 219 286 193 300 127 228 289 255 272 256 258 129 130 135 138 135 129 115 106 98 98 86 79 87 95 86 79 78 86 87 84 79 79 81 76 87 86 93 105 106
227 181 186 182 213 243 235 234 260 189 266 287 256 292 181 148 158 152 149 136 132 127 117 104 105 105 96 99 115 102 97 101 96 93 90 88 87 83 85 98 97 93 89 91
251 171 229 46 245 234 250 282 263 298 258 298 250 250 183 170 153 146 142 138 143 138 133 130 120 110 105 111 110 109 116 114 109 104 96 99 101 93 79 80 82 92 93 100
209 147 203 250 286 289 218 216 248 31 246 282 282 224 210 156 156 149 146 149 152 151 148 153 139 132 133 127 119 123 120 116 107 104 104 95 89 94 95 84 96 93 91 102
186 193 170 222 230 184 250 283 324 269 254 246 214 207 183 172 161 150 153 156 159 157 152 147 142 142 139 128 128 140 128 127 126 123 121 122 111 97 90 93 70 83 102 97